Lid_Strength_Index
4 4 4 4 4 4 4 4 4 4 4 4 4 3 4 4 3 4 6 3 3 2 3 4 4 5 6 7 8 8 10 10 8 8 8 8 9 8 7 7 7 4 4 3 2
5 5 5 5 4 5 5 5 4 4 4 4 4 4 4 4 5 6 3 3 2 2 4 5 6 6 8 8 9 10 11 10 7 7 8 8 8 8 8 8 8 7 3 3 2
5 5 5 5 5 5 5 4 4 4 4 4 4 3 4 4 7 7 2 2 0 0 3 3 4 4 7 7 9 10 12 9 9 8 8 8 9 8 9 9 7 7 7 3 3
5 5 4 4 4 4 4 4 4 4 4 4 4 4 4 5 11 4 1 2 0 2 3 4 5 6 6 8 7 10 10 9 9 9 9 9 8 9 9 8 7 6 7 7 3
5 5 5 5 5 4 4 4 4 4 5 5 5 4 5 8 8 5 4 3 1 2 4 5 6 5 7 6 7 8 8 8 9 9 9 9 9 9 9 8 7 7 7 7 7
5 5 5 5 5 4 4 4 4 4 5 5 5 5 7 11 5 5 5 4 2 3 3 4 6 5 6 6 7 7 7 8 8 9 9 10 10 9 9 8 8 8 8 7 6
5 5 5 5 5 5 5 5 5 5 5 4 4 6 8 9 5 5 5 4 3 3 4 3 4 6 6 7 5 7 9 8 8 7 9 9 12 11 9 8 9 8 8 7 6
5 5 5 5 5 5 5 5 5 5 4 4 4 6 9 5 5 5 5 5 4 3 4 3 3 4 6 5 7 8 8 10 7 8 8 9 12 8 8 9 9 9 8 8 7
5 5 5 5 5 5 5 6 5 5 5 5 5 6 8 5 6 3 3 4 4 4 3 4 3 5 6 8 9 9 11 10 9 6 7 9 10 8 7 7 8 8 8 8 7
5 5 5 5 5 5 6 5 5 5 4 4 5 9 6 7 4 3 1 2 3 5 5 5 5 7 7 9 12 10 10 10 10 8 8 8 9 7 8 7 7 7 7 8 7
6 5 6 5 6 6 6 6 8 7 6 8 8 8 7 6 4 5 2 2 3 4 8 6 9 10 8 7 7 8 9 10 8 7 9 8 8 7 6 6 7 6 6 6 7
6 5 5 5 6 6 6 8 8 8 11 8 8 7 6 5 7 6 1 5 5 8 6 7 10 7 7 6 8 8 9 9 8 8 9 8 9 7 7 6 6 6 6 5 4
6 6 5 5 5 5 7 8 5 5 9 8 7 6 5 4 6 5 4 5 6 8 8 9 8 6 7 8 9 9 10 9 9 8 8 9 10 9 7 6 5 5 5 5 4
6 5 5 5 6 6 7 5 4 3 9 9 7 5 4 4 7 3 3 4 6 9 8 8 6 7 8 9 8 11 7 8 9 9 12 8 14 9 8 7 6 6 5 5 4
5 5 5 6 5 6 6 4 4 4 15 9 6 2 3 6 5 5 2 4 8 8 8 10 8 8 9 9 7 9 6 8 8 9 10 10 12 10 7 9 7 6 5 4 4
5 5 5 4 3 4 3 3 4 10 14 9 6 7 7 5 5 4 5 3 4 7 7 8 6 7 7 6 6 6 8 8 8 9 13 11 11 10 9 8 7 6 5 4 4
5 5 5 3 4 3 3 3 10 13 8 10 9 7 7 8 7 6 7 7 10 12 11 10 9 6 6 8 7 8 10 16 16 15 14 9 11 10 7 7 6 5 5 4 3
6 5 5 3 2 2 3 7 13 10 9 6 7 7 9 8 8 8 8 10 8 9 12 15 16 9 6 8 10 10 11 14 18 16 13 9 12 10 6 5 5 5 4 4 4
6 4 2 1 1 1 5 11 11 9 8 10 9 10 9 8 8 8 9 9 8 7 13 14 13 7 7 6 7 11 12 8 11 10 13 11 9 7 6 6 5 5 5 5 5
6 5 3 1 1 2 7 10 9 7 7 8 12 9 11 10 11 9 10 8 9 9 8 11 14 8 7 6 7 8 7 13 13 17 16 12 11 11 8 7 6 6 6 7 6
5 8 3 1 0 4 10 10 8 7 7 9 9 10 9 10 9 11 11 8 8 9 8 10 13 11 8 10 11 10 11 10 11 11 14 15 12 8 7 7 7 6 7 7 6
6 10 3 2 8 7 10 10 9 9 7 8 6 7 9 10 12 11 11 9 6 8 10 9 13 17 12 8 7 8 10 10 13 15 12 12 12 8 8 7 7 8 7 7 6
8 7 2 4 11 11 9 10 9 9 8 7 8 7 7 10 13 10 11 7 6 8 11 10 14 18 17 12 10 11 10 9 10 10 13 15 12 8 8 8 8 8 7 7 6
7 10 7 5 7 10 11 10 10 7 7 8 8 7 10 10 8 12 9 8 6 7 7 9 13 15 18 14 11 13 12 10 11 15 13 12 11 10 10 10 9 8 7 6 6
6 8 8 11 10 10 9 9 9 9 7 6 9 8 10 12 10 10 9 8 7 7 9 12 15 14 13 13 11 11 11 10 12 11 13 10 11 9 9 9 9 7 7 7 6
8 9 8 10 9 10 8 8 9 8 8 9 10 8 8 11 11 12 9 9 10 9 10 10 15 13 15 12 10 11 10 9 10 10 10 9 10 7 7 8 8 8 7 7 6
6 6 9 10 10 9 8 8 9 8 7 6 7 9 10 8 7 7 7 7 8 11 11 12 13 15 17 12 12 16 11 10 9 9 9 12 9 7 9 9 8 8 7 6 6